Location: Passau
(48.5830°N, 13.4830°E)
Time: 04:38:34
(UTC+01:00)

NUDT-PHONESAT - Visible Passes

Search period start: 29 November 2021 00:00
Search period end: 09 December 2021 00:00
Orbit: 474 x 487 km, 97.4° (Epoch: 28 November)

Date Brightness Start Highest point End Pass type
(mag) Time Alt. Az. Time Alt. Az. Time Alt. Az.
29 Nov ? 06:38:19 10° NNE 06:41:44 38° E 06:45:07 10° SSE visible
29 Nov ? 17:17:28 10° SE 17:20:34 28° ENE 17:23:42 10° N visible
29 Nov ? 18:51:00 10° SSW 18:53:56 24° W 18:56:55 10° NW visible
30 Nov ? 06:13:21 10° NE 06:16:06 20° E 06:18:50 10° SE visible
30 Nov ? 16:53:03 10° ESE 16:55:17 16° ENE 16:57:32 10° NNE visible
30 Nov ? 18:24:51 10° S 18:28:19 46° W 18:31:49 10° NNW visible
01 Dec ? 05:49:27 10° ENE 05:50:22 11° E 05:51:15 10° ESE visible
01 Dec ? 17:59:12 10° SSE 18:02:47 86° ENE 18:06:25 10° NNW visible
02 Dec ? 06:55:03 10° NNE 06:58:39 61° ESE 07:02:11 10° S visible
02 Dec ? 17:33:56 10° SE 17:37:20 42° ENE 17:40:46 10° N visible
02 Dec ? 19:08:39 10° SW 19:10:55 16° W 19:13:12 10° NW visible
03 Dec ? 06:29:48 10° NNE 06:33:02 30° E 06:36:15 10° SSE visible
03 Dec ? 17:09:05 10° ESE 17:11:57 23° ENE 17:14:50 10° NNE visible
03 Dec ? 18:42:01 10° SSW 18:45:12 29° W 18:48:25 10° NNW visible
04 Dec ? 06:04:58 10° NE 06:07:19 16° E 06:09:39 10° SE visible
04 Dec ? 16:44:56 10° E 16:46:40 13° ENE 16:48:24 10° NNE visible
04 Dec ? 18:16:02 10° S 18:19:34 59° W 18:23:10 10° NNW visible
05 Dec ? 17:50:28 10° SSE 17:54:02 67° ENE 17:57:38 10° N visible
05 Dec ? 19:27:10 10° W 19:27:50 10° W 19:28:30 10° WNW visible
06 Dec ? 06:46:19 10° NNE 06:49:49 47° E 06:53:18 10° S visible
06 Dec ? 17:25:18 10° SE 17:28:33 33° ENE 17:31:51 10° N visible
06 Dec ? 18:59:20 10° SW 19:02:01 20° W 19:04:44 10° NW visible
07 Dec ? 06:21:09 10° NE 06:24:08 24° E 06:27:06 10° SSE visible
07 Dec ? 17:00:36 10° ESE 17:03:10 19° ENE 17:05:46 10° NNE visible
07 Dec ? 18:32:56 10° SSW 18:36:17 37° W 18:39:42 10° NNW visible
08 Dec ? 05:56:36 10° ENE 05:58:21 13° E 06:00:05 10° ESE visible
08 Dec ? 18:07:04 10° S 18:10:39 77° WSW 18:14:17 10° NNW visible
